Regional Weather Roundup
Issued by NWS San Diego, CA

Home | Current Version | Previous Version | Text Only | Print | Product List | Glossary On
Versions: 1 2 3 4 5 6 7 8 9 10 11 12 13 14 15 16 17 18 19 20 21 22 23 24 25 26 27 28
000
ASUS46 KSGX 180911
RWRSGX

SAN DIEGO HOURLY WEATHER ROUNDUP
NATIONAL WEATHER SERVICE SAN DIEGO CA
100 AM PST WED JAN 18 2017

NOTE: "FAIR" INDICATES FEW OR NO CLOUDS BELOW 12,000 FEET WITH NO
SIGNIFICANT WEATHER AND/OR OBSTRUCTIONS TO VISIBILITY.

CAZ042-043-060-061-PZZ750-775-181000-

GREATER SAN DIEGO AREA

CITY           SKY/WX    TMP DP  RH WIND       PRES   REMARKS
SAN DIEGO AP   MOCLDY    52  46  80 N3        30.20R
NATIONAL CITY    N/A     49  44  82 CALM      30.18S
CHULA VISTA      N/A     47  44  91 CALM      30.10S
IMPERIAL BEACH CLOUDY    51  46  83 E5        30.18S HAZE
BROWN FIELD    CLEAR     46  44  93 SE6       30.17S FOG
MIRAMAR MCAS   PTCLDY    51  46  83 NE5       30.17R
MONTGOMERY FLD MOCLDY    49  45  86 CALM      30.18R

$$

NORTH SAN DIEGO COUNTY

CITY           SKY/WX    TMP DP  RH WIND       PRES   REMARKS
CAMP PENDLETON CLEAR     43  42  97 CALM      30.17S
OCEANSIDE AP   CLOUDY    46  44  93 CALM      30.17S
VISTA            N/A     47  42  82 CALM      30.16S
CARLSBAD       CLEAR     49  47  93 CALM      30.16S
DEL MAR          N/A     53  51  94 CALM      30.20R
LA JOLLA SCRIP   N/A     53  51  92 NE3       30.18R
FALLBROOK        N/A     49  49  99 CALM      30.15S
ESCONDIDO        N/A     47  42  83 CALM      30.20S
SAN MARCOS       N/A     50  44  81 CALM      30.19S

$$

EAST SAN DIEGO COUNTY

CITY           SKY/WX    TMP DP  RH WIND       PRES   REMARKS
RAMONA         CLEAR     35  35 100 CALM      30.17R FOG
SANTEE LAKES     N/A     44  42  91 CALM      30.18S
LA MESA          N/A     48  43  85 CALM      30.11S
JAMUL            N/A     42  40  91 CALM      30.19S
DESCANSO N       N/A     36  30  79 NE3       30.15R
CAMPO            N/A     33  29  85 NE6       30.13S WCI  28

$$

ORANGE COUNTY AND THE LOS ANGELES BASIN

CITY           SKY/WX    TMP DP  RH WIND       PRES   REMARKS
JOHN WAYNE AP  CLEAR     50  46  86 CALM      30.16F
LAGUNA BEACH     N/A     47  46  95 N3        30.12F
HUNTINGTON BCH   N/A     47  46  96 CALM      30.18F
LOS ALAMITOS   FAIR      47  47  99 CALM      30.16S
FULLERTON      CLEAR     48  43  82 E5        30.15F
LONG BEACH     CLEAR     49  46  90 CALM      30.16F FOG
L.A. AP        MOCLDY    54  52  93 N3        30.15F
L.A. DOWNTOWN  CLEAR     51  48  89 CALM      30.15

$$

THE INLAND EMPIRE

CITY           SKY/WX    TMP DP  RH WIND       PRES   REMARKS
CORONA         CLEAR     37  35  92 CALM      30.17F
CHINO          CLEAR     45  41  86 CALM      30.17F
ONTARIO        PTCLDY    47  37  68 CALM      30.16F
SAN BERNARDINO FAIR      45  32  61 E7        30.17S
RIVERSIDE AP   CLEAR     44  41  89 E3        30.16F
MORENO VALLEY    N/A     46  41  85 CALM      28.27S
MARCH ARB      CLEAR     37  37 100 CALM      30.15F
HORSETHIEF CYN   N/A     43  29  58 W3        30.20S
PERRIS           N/A     46  40  79 CALM      30.20S
HEMET EAST       N/A     45  28  50 CALM      30.23S
FRENCH VALLEY  NOT AVBL
TEMECULA         N/A     44  42  92 CALM      30.21F

$$

SAN BERNARDINO AND RIVERSIDE COUNTY MOUNTAINS

CITY           SKY/WX    TMP DP  RH WIND       PRES   REMARKS
BIG BEAR AP    CLEAR     14  12  92 CALM      30.19S
ANGELUS OAKS     N/A     31  21  66 CALM      30.20F
PINE COVE        N/A     35  18  50 N6        30.20F WCI  30

$$

SOUTHERN DESERT INCLUDING THE COACHELLA VALLEY

CITY           SKY/WX    TMP DP  RH WIND       PRES   REMARKS
PALM SPRINGS   CLEAR     49  35  58 NW8       30.16R
PALM DESERT      N/A     48  36  64 CALM      31.95S
THERMAL        CLEAR     43  38  82 N6        30.12S
BLYTHE         CLEAR     49  28  44 SW6       30.13F
IMPERIAL AP    CLEAR     45  38  76 W5        30.12S
EL CENTRO NAS  CLEAR     47  38  71 W9        30.14S
YUMA AZ        CLEAR     51  32  48 NE5       30.12
MEXICALI       CLEAR     48  36  61 N3        30.13S

$$

UPPER DESERT

CITY           SKY/WX    TMP DP  RH WIND       PRES   REMARKS
VICTORVILLE AP CLEAR     34  25  69 CALM      30.16F
HESPERIA         N/A     32  24  72 CALM      30.36F
PALMDALE       CLEAR     35  29  78 S7        30.15F WCI  29
LANCASTER      CLEAR     30  27  88 NE5       30.16F WCI  25
EDWARDS AFB    CLEAR     33  31  90 SW6       30.14F WCI  28
DAGGETT        CLEAR     38  30  73 W10       30.17S WCI  31
29 PALMS N     CLEAR     40  27  59 VRB3      30.23R
NEEDLES        CLEAR     46  27  47 W5        30.14S

$$

REGIONAL REPORTS

CITY           SKY/WX    TMP DP  RH WIND       PRES   REMARKS
SANTA BARBARA  PTCLDY    44  41  89 CALM      30.14S
SANDBERG       CLEAR     46  11  24 W10       30.16F
LAS VEGAS NV   PTCLDY    42  23  46 SW5       30.14S
PHOENIX AZ     CLEAR     48  42  80 E7        30.11R
TIJUANA        CLEAR     48  43  81 CALM      30.19S
ENSENADA NW      N/A     52  32  46 CALM      30.16R

$$

OFFSHORE ISLANDS

CITY           SKY/WX    TMP DP  RH WIND       PRES   REMARKS
CATALINA ARPT  PTCLDY    47  45  93 CALM      30.15F FOG
SAN NICOLAS IS CLEAR     48  32  53 CALM      30.14F

$$

MARINE AND OFFSHORE BUOY REPORTS

STATION/POSITION SKY/WX   TEMP    WIND        PRES    VSBY  SWELL
                          AIR SEA DIR/SP/G                  HT/PER/DIR
                          (F)     (DEG/KT/KT) (MB)    (MI)  (FT/S/D)
TANNER BANKS               57 60  270/  4/  6 1021.5F         5/280/14
S CLEMENTE BASIN           57 60  300/  8/ 10 1021.8S         5/290/13
SAN NICOLAS IS.               59                N/A           5/280/14
SO. S. ROSA ISLA           55 57  250/  4/  6 1020.5F         5/280/12
W. S. BARBARA CH           55 58  240/  6/  8 1020.6S         5/290/15
M. S. BARBARA CH                  260/  4/  6 1021.0S
S. MONICA BASIN            57 59  250/  4/  6 1020.4F         3/250/13
S PEDRO CHANNEL               60                N/A           2/270/13
CMP PENDLETON NS              59                N/A           2/250/14
OCEANSIDE OFFSHR              60                N/A           2/250/14
TORREY PINES OTR              60                N/A           3/280/13
POINT LOMA SOUTH              60                N/A           3/270/13

$$





USA.gov is the U.S. government's official web portal to all federal, state and local government web resources and services.